Quincy, IL

12:34 PM CST on December 15, 2017 (GMT -0600)
Quincy Regional-Baldwin

Weather History for KUIN - October, 2013

Change the Weather History Date:

Sunday, October 6, 2013

  Actual Average Record
Temperature  
Mean Temperature 46 °F 58 °F  
Max Temperature 52 °F 69 °F 91 °F (1963)
Min Temperature 39 °F 47 °F 24 °F (1952)
Degree Days  
Heating Degree Days 19 8  
Month to date heating degree days 22 44  
Since 1 July heating degree days 59 131  
Cooling Degree Days 0 1  
Month to date cooling degree days 42 7  
Year to date cooling degree days 1241 1083  
Moisture  
Dew Point 43 °F    
Average Humidity 77    
Maximum Humidity 93    
Minimum Humidity 61    
Precipitation  
Precipitation 0.06 in 0.10 in 1.43 in (2017)
Month to date precipitation 0.36 0.62  
Year to date precipitation 30.26 29.67  
Sea Level Pressure  
Sea Level Pressure 29.84 in    
Wind  
Wind Speed 10 mph (WSW)    
Max Wind Speed 20 mph    
Max Gust Speed 26 mph    
Visibility 9 miles    
Events Rain    
T = Trace of Precipitation, MM = Missing Value Source: NWS Daily Summary

Daily Weather History Graph

Daily Weather History Graph

Search for Another Location

Airport or City:

Trip Planner

Search our weather history database for the weather conditions in past years. The results will help you decide how hot, cold, wet, or windy it might be!

Date:

Astronomy

Oct. 06, 2013 Rise Set
Actual Time 7:06 AM CDT 6:38 PM CDT
Civil Twilight 6:39 AM CDT 7:05 PM CDT
Nautical Twilight 6:07 AM CDT 7:36 PM CDT
Astronomical Twilight 5:36 AM CDT 8:08 PM CDT
Moon 8:50 AM CDT (10/6) 7:38 PM CDT (10/6)
Length of Visible Light 12h 26m
Length of Day
11h 32m
Waxing Crescent, 3% of the Moon is Illuminated
Oct 6
Waxing Crescent
Oct 11
First Quarter
Oct 18
Full
Oct 26
Last Quarter
Nov 3
New

Hourly Weather History & Observations

Time (CDT) Temp. Windchill Dew Point Humidity Pressure Visibility Wind Dir Wind Speed Gust Speed Precip Events Conditions
12:54 AM 48.9 °F - 46.0 °F 90% 29.85 in 10.0 mi South 3.5 mph - N/A   Clear
1:54 AM 46.9 °F - 44.1 °F 90% 29.85 in 10.0 mi SW 4.6 mph - N/A   Clear
2:54 AM 46.0 °F 42.5 °F 43.0 °F 89% 29.83 in 10.0 mi SSW 6.9 mph - N/A   Clear
3:54 AM 43.0 °F 39.5 °F 39.9 °F 89% 29.83 in 10.0 mi SSW 5.8 mph - N/A   Clear
4:54 AM 43.0 °F 40.3 °F 39.9 °F 89% 29.83 in 10.0 mi SSW 4.6 mph - N/A   Clear
5:54 AM 42.1 °F 39.2 °F 39.0 °F 89% 29.83 in 10.0 mi SSW 4.6 mph - N/A   Clear
6:54 AM 41.0 °F 38.0 °F 37.9 °F 89% 29.83 in 10.0 mi SW 4.6 mph - N/A   Clear
7:54 AM 44.1 °F 39.5 °F 39.0 °F 82% 29.83 in 10.0 mi WSW 8.1 mph - N/A   Clear
8:54 AM 46.9 °F - 39.9 °F 77% 29.83 in 10.0 mi SW 8.1 mph - N/A   Clear
9:54 AM 48.0 °F - 37.9 °F 68% 29.83 in 10.0 mi WSW 12.7 mph - N/A   Overcast
10:54 AM 48.0 °F - 37.0 °F 66% 29.83 in 10.0 mi WSW 11.5 mph - N/A   Overcast
11:54 AM 48.9 °F - 37.9 °F 66% 29.83 in 10.0 mi SW 11.5 mph - N/A   Overcast
12:31 PM 48.2 °F - 37.4 °F 66% 29.82 in 10.0 mi West 11.5 mph - 0.00 in Rain Light Rain
12:38 PM 50.0 °F - 39.2 °F 66% 29.82 in 10.0 mi WSW 10.4 mph - 0.00 in   Overcast
12:54 PM 50.0 °F - 37.9 °F 63% 29.82 in 10.0 mi WSW 11.5 mph - 0.00 in   Overcast
2:54 PM 50.0 °F - 43.0 °F 77% 29.81 in 9.0 mi WSW 18.4 mph 26.5 mph 0.01 in Rain Light Rain
3:54 PM 51.1 °F - 42.1 °F 71% 29.81 in 10.0 mi West 17.3 mph - 0.00 in Rain Light Rain
4:37 PM 50.0 °F - 42.8 °F 76% 29.82 in 10.0 mi West 11.5 mph 21.9 mph 0.00 in Rain Light Rain
4:52 PM 51.8 °F - 41.0 °F 67% 29.83 in 10.0 mi West 16.1 mph 24.2 mph 0.01 in   Overcast
4:54 PM 50.0 °F - 41.0 °F 71% 29.83 in 10.0 mi West 13.8 mph 24.2 mph 0.01 in   Overcast
5:54 PM 48.9 °F - 43.0 °F 80% 29.84 in 10.0 mi WSW 10.4 mph - 0.00 in   Overcast
6:41 PM 48.2 °F - 44.6 °F 87% 29.83 in 10.0 mi SW 8.1 mph - 0.00 in   Overcast
6:54 PM 48.9 °F - 44.1 °F 83% 29.84 in 10.0 mi SW 8.1 mph - 0.00 in Rain Light Rain
7:42 PM 48.2 °F - 46.4 °F 93% 29.83 in 5.0 mi SW 11.5 mph 19.6 mph 0.01 in Rain Light Rain
7:54 PM 48.9 °F - 46.0 °F 90% 29.83 in 10.0 mi SW 9.2 mph - 0.01 in   Overcast
8:01 PM 48.2 °F - 46.4 °F 93% 29.83 in 10.0 mi SW 11.5 mph - N/A   Overcast
8:11 PM 48.2 °F - 46.4 °F 93% 29.83 in 10.0 mi WSW 13.8 mph - N/A   Overcast
8:54 PM 50.0 °F - 46.0 °F 86% 29.83 in 10.0 mi WSW 16.1 mph 23.0 mph 0.00 in   Overcast
9:08 PM 50.0 °F - 46.4 °F 87% 29.83 in 10.0 mi West 12.7 mph - N/A   Overcast
9:44 PM 50.0 °F - 46.4 °F 87% 29.84 in 4.0 mi WNW 12.7 mph - 0.01 in Rain Light Rain
9:54 PM 48.0 °F - 46.0 °F 93% 29.86 in 3.0 mi NW 13.8 mph 23.0 mph 0.02 in Rain Light Rain
10:01 PM 48.2 °F - 46.4 °F 93% 29.85 in 3.0 mi NW 12.7 mph - 0.00 in Rain Light Rain
10:17 PM 48.2 °F - 46.4 °F 93% 29.86 in 7.0 mi WNW 12.7 mph - 0.00 in Rain Light Rain
10:38 PM 48.2 °F - 44.6 °F 87% 29.87 in 10.0 mi WNW 12.7 mph - 0.00 in Rain Light Rain
10:54 PM 48.0 °F - 45.0 °F 89% 29.88 in 10.0 mi WNW 10.4 mph - 0.00 in   Overcast
11:10 PM 48.2 °F - 44.6 °F 87% 29.88 in 10.0 mi WNW 9.2 mph - N/A   Overcast
11:38 PM 48.2 °F - 44.6 °F 87% 29.88 in 10.0 mi WNW 10.4 mph - N/A   Overcast
11:54 PM 48.0 °F - 45.0 °F 89% 29.88 in 10.0 mi WNW 6.9 mph - N/A   Overcast